Weather reports worldwide

Advertisment
Sennybridge, United Kingdom (3507): temperature & dewpoint: 23.05.2020 14:00:00 - 29.05.2020 14:00:00 (BST)Sennybridge, United Kingdom (3507): temperature -20cm & temperature -100cm: 23.05.2020 14:00:00 - 29.05.2020 14:00:00 (BST)Sennybridge, United Kingdom (3507): wind speed & gusts: 23.05.2020 14:00:00 - 29.05.2020 14:00:00 (BST)Sennybridge, United Kingdom (3507): wind direction: 23.05.2020 14:00:00 - 29.05.2020 14:00:00 (BST)Sennybridge, United Kingdom (3507): reduced air pressure: 23.05.2020 14:00:00 - 29.05.2020 14:00:00 (BST)Sennybridge, United Kingdom (3507): visibility: 23.05.2020 14:00:00 - 29.05.2020 14:00:00 (BST)Sennybridge, United Kingdom (3507): precipitation: 23.05.2020 14:00:00 - 29.05.2020 14:00:00 (BST)
Date & Time tt [°C] td [°C] tt -20cm [°C] tt -100cm [°C] ff [km/h] ff [kn] fx [km/h] fx [kn] dd ppp [hPa] vv [km] rr [mm]
29.05.2020 14:00:00 20,3 5,4 - - 16 9 - - SE 1025,7 15 0,0
29.05.2020 13:00:00 19,9 7,7 - - 15 8 - - ESE 1026,2 28 0,0
29.05.2020 12:00:00 18,8 7,4 - - 16 9 - - SE 1026,9 17 0,0
29.05.2020 11:00:00 17,9 7,9 - - 21 11 - - ESE 1027,3 19 0,0
29.05.2020 10:00:00 16,6 7,9 14,7 11,2 21 11 - - SE 1027,6 16 0,0
29.05.2020 09:00:00 15,0 6,1 - - 16 9 - - ESE 1027,9 23 0,0
29.05.2020 08:00:00 13,3 5,4 - - 13 7 - - ESE 1028,4 17 0,0
29.05.2020 07:00:00 10,1 4,2 - - 4 2 - - N 1029,1 40 0,0
29.05.2020 06:00:00 8,7 2,3 - - 11 6 - - E 1029,4 13 0,0
29.05.2020 05:00:00 8,7 2,0 - - 5 3 - - NNE 1029,5 17 0,0
29.05.2020 04:00:00 9,5 3,2 - - 5 3 - - ENE 1029,5 30 0,0
29.05.2020 03:00:00 10,1 3,3 - - 4 2 - - NNE 1029,7 30 0,0
29.05.2020 02:00:00 11,5 3,6 - - 8 4 - - E 1029,9 20 0,0
29.05.2020 01:00:00 11,3 3,8 - - 4 2 - - E 1030,1 19 0,0
29.05.2020 00:00:00 12,3 5,4 - - 5 3 - - ESE 1029,9 30 0,0
28.05.2020 23:00:00 14,7 5,3 - - 8 4 - - E 1029,7 30 0,0
28.05.2020 22:00:00 15,5 6,6 - - 11 6 - - E 1029,8 35 0,0
28.05.2020 21:00:00 17,1 8,5 - - 11 6 - - E 1029,5 18 0,0
28.05.2020 20:00:00 19,3 9,5 - - 9 5 - - E 1029,3 21 0,0
28.05.2020 19:00:00 20,9 9,9 - - 9 5 - - E 1029,2 30 0,0
28.05.2020 18:00:00 21,2 9,7 - - 13 7 - - E 1029,5 18 0,0
28.05.2020 17:00:00 21,8 12,0 - - 11 6 - - E 1029,7 18 0,0
28.05.2020 16:00:00 21,8 11,8 - - 11 6 - - ESE 1030,2 40 0,0
28.05.2020 15:00:00 21,5 10,7 - - 8 4 - - ENE 1030,7 15 0,0
28.05.2020 14:00:00 21,5 10,9 - - 8 4 - - SE 1031,5 22 0,0
28.05.2020 13:00:00 20,6 12,1 - - 9 5 - - ESE 1032,1 25 0,0
28.05.2020 12:00:00 19,6 11,3 - - 9 5 - - SE 1032,7 26 0,0
28.05.2020 11:00:00 19,0 12,9 - - 8 4 - - ESE 1033,3 29 0,0
28.05.2020 10:00:00 16,6 11,1 14,5 11,2 9 5 - - SE 1034,0 30 0,0
28.05.2020 09:00:00 15,2 10,5 - - 9 5 - - ESE 1034,4 23 0,0
28.05.2020 08:00:00 12,6 9,8 - - 5 3 - - NNE 1035,0 17 0,0
28.05.2020 07:00:00 11,4 9,1 - - 5 3 - - NNE 1035,2 8 0,0
28.05.2020 06:00:00 10,6 8,5 - - 11 6 - - NNE 1035,3 25 0,0
28.05.2020 05:00:00 10,5 7,6 - - 5 3 - - NNE 1035,4 26 0,0
28.05.2020 04:00:00 9,9 7,3 - - 5 3 - - N 1035,7 20 0,0
28.05.2020 03:00:00 10,7 7,5 - - 5 3 - - NNE 1035,7 13 0,0
28.05.2020 02:00:00 11,3 8,1 - - 4 2 - - NNE 1035,5 16 0,0
28.05.2020 01:00:00 13,2 8,7 - - 9 5 - - NE 1035,5 15 0,0
28.05.2020 00:00:00 13,7 7,7 - - 5 3 - - NE 1035,8 24 0,0
27.05.2020 23:00:00 12,9 6,3 - - 8 4 - - NNE 1035,9 28 0,0
27.05.2020 22:00:00 15,4 5,6 - - 4 2 - - NE 1035,5 29 0,0
27.05.2020 21:00:00 16,5 5,1 - - 5 3 - - ENE 1035,0 28 0,0
27.05.2020 20:00:00 19,4 5,6 - - 11 6 - - NNE 1034,2 45 0,0
27.05.2020 19:00:00 20,5 6,2 - - 13 7 - - NNE 1034,0 50 0,0
27.05.2020 18:00:00 21,4 8,9 - - 9 5 - - NNE 1034,0 30 0,0
27.05.2020 17:00:00 21,2 7,9 - - 11 6 - - NNE 1034,2 15 0,0
27.05.2020 16:00:00 21,2 8,9 - - 8 4 - - NNE 1034,6 30 0,0
27.05.2020 15:00:00 21,6 11,1 - - 8 4 - - NNE 1034,6 10 0,0
27.05.2020 14:00:00 19,8 10,3 - - 9 5 - - NE 1035,2 13 0,0
27.05.2020 13:00:00 20,1 10,8 - - 5 3 - - WNW 1035,7 28 0,0
27.05.2020 12:00:00 18,1 11,7 - - 5 3 - - NE 1036,2 25 0,0
27.05.2020 11:00:00 16,4 9,6 - - 5 3 - - N 1036,8 12 0,0
27.05.2020 10:00:00 14,8 8,7 14,0 11,0 5 3 - - N 1037,2 17 0,0
27.05.2020 09:00:00 12,9 6,7 - - 9 5 - - NNE 1037,4 19 0,0
27.05.2020 08:00:00 11,4 9,3 - - 5 3 - - NNE 1037,5 25 0,0
27.05.2020 07:00:00 10,9 9,8 - - 5 3 - - N 1037,5 18 0,0
27.05.2020 06:00:00 9,6 9,5 - - 4 2 - - N 1037,4 3,5 0,0
27.05.2020 05:00:00 9,2 8,4 - - 2 1 - - NNE 1037,3 3,8 0,0
27.05.2020 04:00:00 10,5 10,1 - - 5 3 - - NNE 1037,1 11 0,0
27.05.2020 03:00:00 11,6 10,6 - - 4 2 - - N 1037,3 15 0,0
27.05.2020 02:00:00 11,7 11,1 - - 5 3 - - N 1037,5 20 0,0
27.05.2020 01:00:00 11,6 11,0 - - 4 2 - - NNE 1037,4 25 0,0
27.05.2020 00:00:00 10,3 10,1 - - 4 2 - - NNE 1037,6 25 0,0
26.05.2020 23:00:00 9,5 8,2 - - 2 1 - - NNE 1037,5 28 0,0
26.05.2020 22:00:00 13,6 11,4 - - 2 1 - - N 1037,0 22 0,0
26.05.2020 21:00:00 15,9 12,0 - - 4 2 - - N 1036,2 45 0,0
26.05.2020 20:00:00 17,9 12,5 - - 4 2 - - NNW 1035,8 28 0,0
26.05.2020 19:00:00 19,3 12,7 - - 5 3 - - W 1035,4 30 0,0
26.05.2020 18:00:00 20,0 13,7 - - 5 3 - - W 1035,6 16 0,0
26.05.2020 17:00:00 18,9 12,9 - - 5 3 - - WNW 1035,9 18 0,0
26.05.2020 16:00:00 18,3 12,2 - - 4 2 - - W 1036,2 24 0,0
26.05.2020 15:00:00 18,5 13,6 - - 8 4 - - W 1036,4 27 0,0
26.05.2020 14:00:00 18,0 12,9 - - 5 3 - - W 1036,5 35 0,0
26.05.2020 13:00:00 17,4 11,8 - - 9 5 - - W 1036,6 24 0,0
26.05.2020 12:00:00 17,4 12,8 - - 8 4 - - WSW 1036,4 17 0,0
26.05.2020 11:00:00 16,5 12,5 - - 13 7 - - WSW 1036,6 50 0,0
26.05.2020 10:00:00 13,6 10,0 13,7 11,0 11 6 - - WSW 1037,0 35 0,0
26.05.2020 09:00:00 12,6 9,0 - - 9 5 - - WSW 1037,2 24 0,0
26.05.2020 08:00:00 11,8 7,7 - - 5 3 - - WSW 1036,9 22 0,0
26.05.2020 07:00:00 10,2 7,4 - - 8 4 - - SSW 1036,6 30 0,0
26.05.2020 06:00:00 9,9 6,6 - - 5 3 - - SSW 1036,5 18 0,0
26.05.2020 05:00:00 9,4 6,9 - - 5 3 - - S 1036,3 19 0,0
26.05.2020 04:00:00 8,6 7,0 - - 8 4 - - S 1036,3 23 0,0
26.05.2020 03:00:00 8,8 6,4 - - 5 3 - - S 1036,0 18 0,0
26.05.2020 02:00:00 10,0 6,9 - - 8 4 - - SSW 1035,8 22 0,0
26.05.2020 01:00:00 8,5 6,5 - - 8 4 - - S 1036,2 18 0,0
26.05.2020 00:00:00 8,3 5,7 - - 5 3 - - S 1036,2 13 0,0
25.05.2020 23:00:00 8,6 5,2 - - 8 4 - - SSE 1036,1 20 0,0
25.05.2020 22:00:00 10,6 5,3 - - 5 3 - - S 1035,4 23 0,0
25.05.2020 21:00:00 13,3 6,6 - - 15 8 - - SW 1035,0 29 0,0
25.05.2020 20:00:00 14,7 7,2 - - 15 8 - - WSW 1034,6 29 0,0
25.05.2020 19:00:00 16,0 5,8 - - 24 13 - - WSW 1034,4 35 0,0
25.05.2020 18:00:00 16,6 6,4 - - 16 9 - - WSW 1034,3 35 0,0
25.05.2020 17:00:00 17,4 6,6 - - 26 14 - - SW 1034,3 29 0,0
25.05.2020 16:00:00 17,3 6,1 - - 24 13 - - WSW 1034,3 30 0,0
25.05.2020 15:00:00 17,6 7,4 - - 24 13 - - WSW 1034,2 19 0,0
25.05.2020 14:00:00 17,6 7,6 - - 24 13 - - WSW 1034,4 35 0,0
25.05.2020 13:00:00 17,4 6,5 - - 18 10 - - WSW 1034,5 24 0,0
25.05.2020 12:00:00 16,3 6,3 - - 18 10 - - WSW 1034,5 24 0,0
25.05.2020 11:00:00 15,5 5,9 - - 18 10 - - SW 1034,6 25 0,0
25.05.2020 10:00:00 14,2 6,5 13,5 10,9 5 3 - - SSW 1034,6 40 0,0
25.05.2020 09:00:00 10,9 7,8 - - 4 2 - - NNE 1035,4 21 0,0
25.05.2020 08:00:00 8,6 7,0 - - 4 2 - - ENE 1035,6 14 0,0
25.05.2020 07:00:00 6,2 6,0 - - 4 2 - - SSW 1035,9 1,0 0,0
25.05.2020 06:00:00 6,5 6,3 - - 5 3 - - SSE 1035,6 3,0 0,0
25.05.2020 05:00:00 6,8 6,7 - - 5 3 - - WSW 1035,6 4,9 0,0
25.05.2020 04:00:00 7,0 7,0 - - 5 3 - - WSW 1035,3 0,9 0,0
25.05.2020 03:00:00 7,4 7,4 - - 9 5 - - SW 1035,3 0,7 0,0
25.05.2020 02:00:00 7,4 7,3 - - 11 6 - - SSW 1035,4 1,8 0,0
25.05.2020 01:00:00 6,4 6,0 - - 9 5 - - SSW 1035,6 6 0,0
25.05.2020 00:00:00 7,3 6,7 - - 8 4 - - SSW 1035,3 13 0,0
24.05.2020 23:00:00 7,5 6,7 - - 8 4 - - SSW 1035,4 14 0,0
24.05.2020 22:00:00 8,5 6,9 - - 9 5 - - SW 1034,8 14 0,0
24.05.2020 21:00:00 11,1 6,4 - - 11 6 - - SW 1034,0 27 0,0
24.05.2020 20:00:00 13,6 6,4 - - 13 7 - - WSW 1033,1 29 0,0
24.05.2020 19:00:00 15,9 2,4 - - 4 2 - - WNW 1032,3 40 0,0
24.05.2020 18:00:00 17,1 4,9 - - 8 4 - - WNW 1032,1 29 0,0
24.05.2020 17:00:00 17,4 5,9 - - 9 5 - - W 1031,8 30 0,0
24.05.2020 16:00:00 16,8 7,5 - - 21 11 - - WSW 1032,0 23 0,0
24.05.2020 15:00:00 17,9 5,2 - - 8 4 - - WNW 1031,5 40 0,0
24.05.2020 14:00:00 17,2 8,2 - - 15 8 - - W 1031,4 24 0,0
24.05.2020 13:00:00 16,6 8,4 - - 9 5 - - W 1031,4 18 0,0
24.05.2020 12:00:00 16,1 9,3 - - 9 5 - - W 1031,2 28 0,0
24.05.2020 11:00:00 14,0 7,9 - - 15 8 - - W 1031,6 13 0,0
24.05.2020 10:00:00 12,8 9,0 13,0 10,9 8 4 - - W 1031,6 13 0,0
24.05.2020 09:00:00 10,7 8,6 - - 11 6 - - WSW 1031,5 12 0,0
24.05.2020 08:00:00 10,1 8,4 - - 8 4 - - W 1030,8 12 0,0
24.05.2020 07:00:00 9,9 8,3 - - 9 5 - - W 1030,0 10 0,0
24.05.2020 06:00:00 9,8 8,4 - - 13 7 - - W 1029,2 10 0,0
24.05.2020 05:00:00 9,7 8,5 - - 16 9 - - WSW 1028,8 8 0,0
24.05.2020 04:00:00 9,7 8,5 - - 18 10 - - WSW 1028,3 9 0,0
24.05.2020 03:00:00 9,9 8,5 - - 18 10 - - WSW 1028,0 9 0,0
24.05.2020 02:00:00 9,8 8,6 - - 15 8 - - WSW 1027,8 8 0,0
24.05.2020 01:00:00 9,6 8,3 - - 16 9 - - WSW 1027,7 11 0,0
24.05.2020 00:00:00 9,4 7,6 - - 16 9 - - WSW 1027,4 11 0,0
23.05.2020 23:00:00 9,6 6,7 - - 16 9 - - WSW 1026,9 14 0,0
23.05.2020 22:00:00 9,7 6,7 - - 21 11 - - WSW 1026,4 10 0,0
23.05.2020 21:00:00 10,0 6,7 - - 15 8 - - W 1025,6 15 0,0
23.05.2020 20:00:00 10,5 6,3 - - 18 10 52 28 W 1024,9 16 0,0
23.05.2020 19:00:00 11,2 6,2 - - 18 10 - - W 1024,0 12 0,0
23.05.2020 18:00:00 11,2 6,8 - - 11 6 48 26 W 1023,6 13 0,4
23.05.2020 17:00:00 11,7 5,2 - - 26 14 57 31 W 1023,0 18 0,0
23.05.2020 16:00:00 13,0 5,8 - - 26 14 61 33 W 1022,4 29 0,0
23.05.2020 15:00:00 12,9 6,2 - - 29 16 59 32 W 1021,5 13 0,0
23.05.2020 14:00:00 12,1 4,1 - - 22 12 57 31 W 1021,2 12 0,0

tt = temperature
td = dewpoint
tt -20cm = temperature -20cm
tt -100cm = temperature -100cm
ff = wind speed
fx = gusts
dd = wind direction
ppp = reduced air pressure
vv = visibility
rr = precipitation

Next stations